Time,TemperatureF,DewpointF,PressureIn,WindDirection,WindDirectionDegrees,WindSpeedMPH,WindSpeedGustMPH,Humidity,HourlyPrecipIn,Conditions,Clouds,dailyrainin,SolarRadiationWatts/m^2,SoftwareType,DateUTC
2013-01-17 00:00:00,40.5,38.4,29.99,West,261,0.0,0.0,92,0.00,,,0.25,0,Wunderground v.1.15,2013-01-17 05:00:00,
2013-01-17 00:01:00,40.5,38.4,29.99,West,261,0.0,0.0,92,0.00,,,0.25,0,Wunderground v.1.15,2013-01-17 05:01:00,
2013-01-17 00:02:00,40.5,38.4,29.99,West,261,0.0,0.0,92,0.00,,,0.25,0,Wunderground v.1.15,2013-01-17 05:02:00,
2013-01-17 00:03:00,40.5,38.4,29.98,West,261,0.0,0.0,92,0.00,,,0.25,0,Wunderground v.1.15,2013-01-17 05:03:00,
2013-01-17 00:08:00,40.5,38.4,29.99,West,261,0.0,0.0,92,0.00,,,0.25,0,Wunderground v.1.15,2013-01-17 05:08:00,
2013-01-17 00:13:00,40.5,38.4,29.98,West,261,0.0,2.0,92,0.00,,,0.25,0,Wunderground v.1.15,2013-01-17 05:13:00,
2013-01-17 00:19:00,40.5,38.4,29.99,West,261,0.0,2.0,92,0.00,,,0.25,0,Wunderground v.1.15,2013-01-17 05:19:00,
2013-01-17 00:25:00,40.5,38.4,29.99,West,261,0.0,2.0,92,0.00,,,0.00,0,Wunderground v.1.15,2013-01-17 05:25:00,
2013-01-17 00:31:00,40.5,38.4,30.00,West,261,0.0,5.0,92,0.00,,,0.00,0,Wunderground v.1.15,2013-01-17 05:31:00,
2013-01-17 00:37:00,40.5,38.4,29.99,West,261,1.0,5.0,92,0.00,,,0.00,0,Wunderground v.1.15,2013-01-17 05:37:00,
2013-01-17 00:43:00,40.5,38.4,30.00,West,261,0.0,5.0,92,0.00,,,0.00,0,Wunderground v.1.15,2013-01-17 05:43:00,
2013-01-17 00:49:00,40.5,38.4,30.01,West,261,1.0,5.0,92,0.00,,,0.00,0,Wunderground v.1.15,2013-01-17 05:49:00,
2013-01-17 00:55:00,40.5,38.4,30.01,West,261,0.0,5.0,92,0.00,,,0.00,0,Wunderground v.1.15,2013-01-17 05:55:00,
2013-01-17 01:01:00,40.5,38.4,30.01,West,261,0.0,5.0,92,0.00,,,0.00,0,Wunderground v.1.15,2013-01-17 06:01:00,
2013-01-17 01:08:00,40.5,38.4,30.01,West,261,0.0,5.0,92,0.00,,,0.00,0,Wunderground v.1.15,2013-01-17 06:08:00,
2013-01-17 01:13:00,40.5,38.4,30.00,West,261,0.0,5.0,92,0.00,,,0.00,0,Wunderground v.1.15,2013-01-17 06:13:00,
2013-01-17 01:18:00,40.5,38.4,30.01,West,261,0.0,5.0,92,0.00,,,0.00,0,Wunderground v.1.15,2013-01-17 06:18:00,
2013-01-17 01:24:00,40.5,38.4,30.00,West,261,0.0,5.0,92,0.00,,,0.00,0,Wunderground v.1.15,2013-01-17 06:24:00,
2013-01-17 01:30:00,40.5,38.4,30.01,West,261,0.0,5.0,92,0.00,,,0.00,0,Wunderground v.1.15,2013-01-17 06:30:00,
2013-01-17 01:35:00,40.5,38.4,30.01,West,261,0.0,5.0,92,0.00,,,0.00,0,Wunderground v.1.15,2013-01-17 06:35:00,
2013-01-17 01:41:00,40.5,38.4,30.01,West,261,0.0,5.0,92,0.00,,,0.00,0,Wunderground v.1.15,2013-01-17 06:41:00,
2013-01-17 01:46:00,40.5,38.4,30.02,West,261,0.0,5.0,92,0.00,,,0.00,0,Wunderground v.1.15,2013-01-17 06:46:00,
2013-01-17 01:52:00,40.5,38.4,30.02,West,261,0.0,5.0,92,0.00,,,0.00,0,Wunderground v.1.15,2013-01-17 06:52:00,
2013-01-17 01:58:00,40.5,38.4,30.02,West,261,0.0,5.0,92,0.00,,,0.00,0,Wunderground v.1.15,2013-01-17 06:58:00,
2013-01-17 02:04:00,40.5,38.4,30.02,West,261,0.0,5.0,92,0.00,,,0.00,0,Wunderground v.1.15,2013-01-17 07:04:00,
2013-01-17 02:10:00,40.6,38.5,30.02,West,261,0.0,5.0,92,0.00,,,0.00,0,Wunderground v.1.15,2013-01-17 07:10:00,
2013-01-17 02:15:00,40.6,38.5,30.02,West,261,0.0,5.0,92,0.00,,,0.00,0,Wunderground v.1.15,2013-01-17 07:15:00,
2013-01-17 02:21:00,40.6,38.5,30.02,West,261,0.0,5.0,92,0.00,,,0.00,0,Wunderground v.1.15,2013-01-17 07:21:00,
2013-01-17 02:27:00,40.6,38.5,30.02,West,261,0.0,5.0,92,0.00,,,0.00,0,Wunderground v.1.15,2013-01-17 07:27:00,
2013-01-17 02:32:00,40.6,38.5,30.02,West,261,0.0,5.0,92,0.00,,,0.00,0,Wunderground v.1.15,2013-01-17 07:32:00,
2013-01-17 02:38:00,40.6,38.5,30.02,West,261,0.0,5.0,92,0.00,,,0.00,0,Wunderground v.1.15,2013-01-17 07:38:00,
2013-01-17 02:43:00,40.6,38.5,30.02,West,261,0.0,5.0,92,0.00,,,0.00,0,Wunderground v.1.15,2013-01-17 07:43:00,
2013-01-17 02:49:00,40.7,38.6,30.03,West,261,0.0,5.0,92,0.00,,,0.00,0,Wunderground v.1.15,2013-01-17 07:49:00,
2013-01-17 02:55:00,40.7,38.6,30.03,West,261,0.0,5.0,92,0.00,,,0.00,0,Wunderground v.1.15,2013-01-17 07:55:00,
2013-01-17 03:00:00,40.7,38.8,30.02,West,261,0.0,5.0,93,0.00,,,0.00,0,Wunderground v.1.15,2013-01-17 08:00:00,
2013-01-17 03:06:00,40.7,38.8,30.02,West,261,0.0,5.0,93,0.00,,,0.00,0,Wunderground v.1.15,2013-01-17 08:06:00,
2013-01-17 03:11:00,40.7,38.8,30.02,West,261,0.0,5.0,93,0.00,,,0.00,0,Wunderground v.1.15,2013-01-17 08:11:00,
2013-01-17 03:17:00,40.8,38.9,30.02,West,261,0.0,5.0,93,0.00,,,0.00,0,Wunderground v.1.15,2013-01-17 08:17:00,
2013-01-17 03:23:00,40.8,38.9,30.00,West,261,0.0,5.0,93,0.00,,,0.00,0,Wunderground v.1.15,2013-01-17 08:23:00,
2013-01-17 03:29:00,40.8,38.9,29.99,West,261,0.0,5.0,93,0.00,,,0.00,0,Wunderground v.1.15,2013-01-17 08:29:00,
2013-01-17 03:35:00,40.7,38.8,30.00,West,261,0.0,5.0,93,0.00,,,0.00,0,Wunderground v.1.15,2013-01-17 08:35:00,
2013-01-17 03:41:00,40.8,38.9,30.00,West,261,0.0,5.0,93,0.00,,,0.00,0,Wunderground v.1.15,2013-01-17 08:41:00,
2013-01-17 03:47:00,40.8,38.9,30.00,West,261,0.0,5.0,93,0.00,,,0.00,0,Wunderground v.1.15,2013-01-17 08:47:00,
2013-01-17 03:52:00,40.8,38.9,30.00,West,261,0.0,5.0,93,0.00,,,0.00,0,Wunderground v.1.15,2013-01-17 08:52:00,
2013-01-17 03:57:00,40.8,38.9,30.01,West,261,0.0,5.0,93,0.00,,,0.00,0,Wunderground v.1.15,2013-01-17 08:57:00,
2013-01-17 04:03:00,40.8,38.9,30.01,West,261,0.0,5.0,93,0.00,,,0.00,0,Wunderground v.1.15,2013-01-17 09:03:00,
2013-01-17 04:09:00,40.8,38.9,30.02,West,261,0.0,5.0,93,0.00,,,0.00,0,Wunderground v.1.15,2013-01-17 09:09:00,
2013-01-17 04:15:00,40.8,38.9,30.01,West,261,0.0,5.0,93,0.00,,,0.00,0,Wunderground v.1.15,2013-01-17 09:15:00,
2013-01-17 04:21:00,40.8,38.9,30.01,West,261,0.0,5.0,93,0.00,,,0.00,0,Wunderground v.1.15,2013-01-17 09:21:00,
2013-01-17 04:26:00,40.7,38.8,30.02,West,261,0.0,5.0,93,0.00,,,0.00,0,Wunderground v.1.15,2013-01-17 09:26:00,
2013-01-17 04:31:00,40.7,38.8,30.00,West,261,0.0,5.0,93,0.00,,,0.00,0,Wunderground v.1.15,2013-01-17 09:31:00,
2013-01-17 04:36:00,40.7,38.8,30.01,West,261,0.0,5.0,93,0.00,,,0.00,0,Wunderground v.1.15,2013-01-17 09:36:00,
2013-01-17 04:42:00,40.8,38.9,30.02,West,261,0.0,5.0,93,0.00,,,0.00,0,Wunderground v.1.15,2013-01-17 09:42:00,
2013-01-17 04:47:00,40.8,38.9,30.02,West,261,0.0,5.0,93,0.00,,,0.00,0,Wunderground v.1.15,2013-01-17 09:47:00,
2013-01-17 04:53:00,40.8,38.9,30.01,West,261,0.0,5.0,93,0.00,,,0.00,0,Wunderground v.1.15,2013-01-17 09:53:00,
2013-01-17 04:58:00,40.8,38.9,30.01,West,261,0.0,5.0,93,0.00,,,0.00,0,Wunderground v.1.15,2013-01-17 09:58:00,
2013-01-17 05:03:00,40.8,38.9,30.02,West,261,0.0,5.0,93,0.00,,,0.00,0,Wunderground v.1.15,2013-01-17 10:03:00,
2013-01-17 05:09:00,40.8,38.9,30.02,West,261,0.0,5.0,93,0.00,,,0.00,0,Wunderground v.1.15,2013-01-17 10:09:00,
2013-01-17 05:15:00,40.8,38.9,30.03,West,261,0.0,5.0,93,0.00,,,0.00,0,Wunderground v.1.15,2013-01-17 10:15:00,
2013-01-17 05:21:00,40.8,38.9,30.04,West,261,0.0,5.0,93,0.00,,,0.00,0,Wunderground v.1.15,2013-01-17 10:21:00,
2013-01-17 05:27:00,40.8,38.9,30.04,West,261,0.0,5.0,93,0.00,,,0.00,0,Wunderground v.1.15,2013-01-17 10:27:00,
2013-01-17 05:33:00,40.7,38.8,30.03,West,261,0.0,5.0,93,0.00,,,0.00,0,Wunderground v.1.15,2013-01-17 10:33:00,
2013-01-17 05:39:00,40.7,38.8,30.03,West,261,0.0,5.0,93,0.00,,,0.00,0,Wunderground v.1.15,2013-01-17 10:39:00,
2013-01-17 05:44:00,40.7,38.6,30.03,West,261,0.0,5.0,92,0.00,,,0.00,0,Wunderground v.1.15,2013-01-17 10:44:00,
2013-01-17 05:50:00,40.7,38.6,30.03,West,261,0.0,5.0,92,0.00,,,0.00,0,Wunderground v.1.15,2013-01-17 10:50:00,
2013-01-17 05:55:00,40.7,38.6,30.02,West,261,0.0,5.0,92,0.00,,,0.00,0,Wunderground v.1.15,2013-01-17 10:55:00,
2013-01-17 06:00:00,40.7,38.6,30.04,West,261,0.0,5.0,92,0.00,,,0.00,0,Wunderground v.1.15,2013-01-17 11:00:00,
2013-01-17 06:06:00,40.7,38.6,30.03,West,261,0.0,5.0,92,0.00,,,0.00,0,Wunderground v.1.15,2013-01-17 11:06:00,
2013-01-17 06:12:00,40.7,38.6,30.04,West,261,0.0,5.0,92,0.00,,,0.00,0,Wunderground v.1.15,2013-01-17 11:12:00,
2013-01-17 06:18:00,40.7,38.3,30.05,West,261,0.0,5.0,91,0.00,,,0.00,0,Wunderground v.1.15,2013-01-17 11:18:00,
2013-01-17 06:23:00,40.7,38.6,30.05,West,261,0.0,5.0,92,0.00,,,0.00,0,Wunderground v.1.15,2013-01-17 11:23:00,
2013-01-17 06:29:00,40.7,38.3,30.05,West,261,0.0,5.0,91,0.00,,,0.00,0,Wunderground v.1.15,2013-01-17 11:29:00,
2013-01-17 06:35:00,40.7,38.3,30.06,West,261,0.0,5.0,91,0.00,,,0.00,0,Wunderground v.1.15,2013-01-17 11:35:00,
2013-01-17 06:41:00,40.7,38.3,30.06,West,261,0.0,5.0,91,0.00,,,0.00,0,Wunderground v.1.15,2013-01-17 11:41:00,
2013-01-17 06:47:00,40.7,38.3,30.07,West,261,0.0,5.0,91,0.00,,,0.00,0,Wunderground v.1.15,2013-01-17 11:47:00,
2013-01-17 06:53:00,40.7,38.3,30.06,West,261,0.0,5.0,91,0.00,,,0.00,0,Wunderground v.1.15,2013-01-17 11:53:00,
2013-01-17 06:59:00,40.6,37.9,30.05,West,261,0.0,5.0,90,0.00,,,0.00,0,Wunderground v.1.15,2013-01-17 11:59:00,
2013-01-17 07:05:00,40.5,37.8,30.07,West,261,0.0,5.0,90,0.00,,,0.00,0,Wunderground v.1.15,2013-01-17 12:05:00,
2013-01-17 07:11:00,40.4,37.7,30.08,West,261,0.0,5.0,90,0.00,,,0.00,0,Wunderground v.1.15,2013-01-17 12:11:00,
2013-01-17 07:17:00,40.4,37.4,30.08,West,261,0.0,5.0,89,0.00,,,0.00,0,Wunderground v.1.15,2013-01-17 12:17:00,
2013-01-17 07:22:00,40.5,37.5,30.07,West,261,0.0,5.0,89,0.00,,,0.00,0,Wunderground v.1.15,2013-01-17 12:22:00,
2013-01-17 07:27:00,40.5,37.2,30.07,West,261,0.0,5.0,88,0.00,,,0.00,0,Wunderground v.1.15,2013-01-17 12:27:00,
2013-01-17 07:32:00,40.6,37.3,30.07,West,261,0.0,5.0,88,0.00,,,0.00,0,Wunderground v.1.15,2013-01-17 12:32:00,
2013-01-17 07:38:00,40.6,37.0,30.07,West,261,0.0,5.0,87,0.00,,,0.00,5,Wunderground v.1.15,2013-01-17 12:38:00,
2013-01-17 07:44:00,40.5,36.3,30.08,West,261,1.0,5.0,85,0.00,,,0.00,5,Wunderground v.1.15,2013-01-17 12:44:00,
2013-01-17 07:50:00,40.7,34.7,30.08,NW,304,2.0,2.0,79,0.00,,,0.00,7,Wunderground v.1.15,2013-01-17 12:50:00,
2013-01-17 07:56:00,41.0,33.7,30.08,NW,304,2.0,5.0,75,0.00,,,0.00,9,Wunderground v.1.15,2013-01-17 12:56:00,
2013-01-17 08:02:00,41.3,33.0,30.09,NW,304,1.0,5.0,72,0.00,,,0.00,18,Wunderground v.1.15,2013-01-17 13:02:00,
2013-01-17 08:08:00,41.5,32.8,30.08,NW,304,1.0,5.0,71,0.00,,,0.00,19,Wunderground v.1.15,2013-01-17 13:08:00,
2013-01-17 08:13:00,41.7,31.9,30.09,NW,307,1.0,5.0,68,0.00,,,0.00,23,Wunderground v.1.15,2013-01-17 13:13:00,
2013-01-17 08:18:00,41.8,31.6,30.09,NW,307,1.0,5.0,67,0.00,,,0.00,21,Wunderground v.1.15,2013-01-17 13:18:00,
2013-01-17 08:24:00,42.0,31.8,30.11,NW,307,1.0,5.0,67,0.00,,,0.00,23,Wunderground v.1.15,2013-01-17 13:24:00,
2013-01-17 08:30:00,42.1,31.6,30.11,NW,307,1.0,1.0,66,0.00,,,0.00,25,Wunderground v.1.15,2013-01-17 13:30:00,
2013-01-17 08:36:00,42.2,31.3,30.10,NW,308,0.0,5.0,65,0.00,,,0.00,32,Wunderground v.1.15,2013-01-17 13:36:00,
2013-01-17 08:42:00,42.3,31.0,30.12,NW,308,1.0,5.0,64,0.00,,,0.00,46,Wunderground v.1.15,2013-01-17 13:42:00,
2013-01-17 08:48:00,42.4,30.3,30.13,NNW,329,2.0,6.0,62,0.00,,,0.00,49,Wunderground v.1.15,2013-01-17 13:48:00,
2013-01-17 08:53:00,42.6,29.7,30.13,NW,306,4.0,7.0,60,0.00,,,0.00,65,Wunderground v.1.15,2013-01-17 13:53:00,
2013-01-17 08:59:00,42.7,30.2,30.13,NW,310,3.0,7.0,61,0.00,,,0.00,88,Wunderground v.1.15,2013-01-17 13:59:00,
2013-01-17 09:04:00,42.7,30.2,30.12,NW,321,2.0,5.0,61,0.00,,,0.00,63,Wunderground v.1.15,2013-01-17 14:04:00,
2013-01-17 09:10:00,42.7,30.6,30.12,NW,323,2.0,5.0,62,0.00,,,0.00,60,Wunderground v.1.15,2013-01-17 14:10:00,
2013-01-17 09:16:00,42.7,30.6,30.13,NW,313,2.0,5.0,62,0.00,,,0.00,67,Wunderground v.1.15,2013-01-17 14:16:00,
2013-01-17 09:22:00,42.7,29.8,30.13,WNW,292,3.0,8.0,60,0.00,,,0.00,83,Wunderground v.1.15,2013-01-17 14:22:00,
2013-01-17 09:27:00,42.7,30.2,30.13,NW,318,4.0,8.0,61,0.00,,,0.00,74,Wunderground v.1.15,2013-01-17 14:27:00,
2013-01-17 09:33:00,42.7,30.2,30.13,WNW,298,4.0,10.0,61,0.00,,,0.00,104,Wunderground v.1.15,2013-01-17 14:33:00,
2013-01-17 09:39:00,42.7,30.6,30.13,NW,323,4.0,10.0,62,0.00,,,0.00,76,Wunderground v.1.15,2013-01-17 14:39:00,
2013-01-17 09:45:00,42.7,30.2,30.13,NNW,329,3.0,9.0,61,0.00,,,0.00,113,Wunderground v.1.15,2013-01-17 14:45:00,
2013-01-17 09:51:00,42.7,30.6,30.13,WNW,288,4.0,5.0,62,0.00,,,0.00,135,Wunderground v.1.15,2013-01-17 14:51:00,
2013-01-17 09:57:00,42.8,30.7,30.13,NW,309,3.0,5.0,62,0.00,,,0.00,148,Wunderground v.1.15,2013-01-17 14:57:00,
2013-01-17 10:03:00,42.9,30.8,30.13,NW,308,2.0,5.0,62,0.00,,,0.00,174,Wunderground v.1.15,2013-01-17 15:03:00,
2013-01-17 10:09:00,43.0,30.9,30.14,WNW,300,3.0,5.0,62,0.00,,,0.00,121,Wunderground v.1.15,2013-01-17 15:09:00,
2013-01-17 10:14:00,43.1,30.6,30.14,NW,313,3.0,5.0,61,0.00,,,0.00,104,Wunderground v.1.15,2013-01-17 15:14:00,
2013-01-17 10:20:00,43.1,30.6,30.14,NNW,327,3.0,5.0,61,0.00,,,0.00,91,Wunderground v.1.15,2013-01-17 15:20:00,
2013-01-17 10:25:00,43.1,30.6,30.13,NW,313,3.0,5.0,61,0.00,,,0.00,120,Wunderground v.1.15,2013-01-17 15:25:00,
2013-01-17 10:31:00,43.1,30.6,30.13,NNW,329,3.0,5.0,61,0.00,,,0.00,185,Wunderground v.1.15,2013-01-17 15:31:00,
2013-01-17 10:36:00,43.2,30.6,30.13,NW,321,3.0,5.0,61,0.00,,,0.00,232,Wunderground v.1.15,2013-01-17 15:36:00,
2013-01-17 10:41:00,43.3,31.1,30.13,NW,320,3.0,5.0,62,0.00,,,0.00,199,Wunderground v.1.15,2013-01-17 15:41:00,
2013-01-17 10:47:00,43.6,31.4,30.14,WNW,298,3.0,5.0,62,0.00,,,0.00,167,Wunderground v.1.15,2013-01-17 15:47:00,
2013-01-17 10:53:00,43.7,31.1,30.13,NW,313,4.0,5.0,61,0.00,,,0.00,169,Wunderground v.1.15,2013-01-17 15:53:00,
2013-01-17 10:59:00,43.8,30.8,30.14,NW,317,3.0,5.0,60,0.00,,,0.00,153,Wunderground v.1.15,2013-01-17 15:59:00,
2013-01-17 11:05:00,43.8,30.8,30.13,NNW,339,3.0,8.0,60,0.00,,,0.00,172,Wunderground v.1.15,2013-01-17 16:05:00,
2013-01-17 11:11:00,43.7,30.7,30.13,NNW,333,4.0,5.0,60,0.00,,,0.00,207,Wunderground v.1.15,2013-01-17 16:11:00,
2013-01-17 11:17:00,43.6,30.6,30.13,WNW,286,6.0,10.0,60,0.00,,,0.00,269,Wunderground v.1.15,2013-01-17 16:17:00,
2013-01-17 11:23:00,43.8,31.6,30.13,NW,323,4.0,5.0,62,0.00,,,0.00,190,Wunderground v.1.15,2013-01-17 16:23:00,
2013-01-17 11:29:00,44.0,31.4,30.13,NNW,336,3.0,7.0,61,0.00,,,0.00,199,Wunderground v.1.15,2013-01-17 16:29:00,
2013-01-17 11:34:00,44.0,31.0,30.13,NW,323,4.0,8.0,60,0.00,,,0.00,206,Wunderground v.1.15,2013-01-17 16:34:00,
2013-01-17 11:40:00,44.0,31.0,30.13,NNW,341,3.0,3.0,60,0.00,,,0.00,183,Wunderground v.1.15,2013-01-17 16:40:00,
2013-01-17 11:46:00,44.1,31.5,30.13,NW,312,2.0,5.0,61,0.00,,,0.00,227,Wunderground v.1.15,2013-01-17 16:46:00,
2013-01-17 11:52:00,44.3,31.7,30.12,NW,315,2.0,5.0,61,0.00,,,0.00,269,Wunderground v.1.15,2013-01-17 16:52:00,
2013-01-17 11:58:00,44.3,31.3,30.12,NNW,344,4.0,7.0,60,0.00,,,0.00,179,Wunderground v.1.15,2013-01-17 16:58:00,
2013-01-17 12:03:00,44.2,30.8,30.12,NNW,342,5.0,6.0,59,0.00,,,0.00,155,Wunderground v.1.15,2013-01-17 17:03:00,
2013-01-17 12:09:00,44.1,30.7,30.12,NNW,338,5.0,6.0,59,0.00,,,0.00,105,Wunderground v.1.15,2013-01-17 17:09:00,
2013-01-17 12:15:00,43.9,30.9,30.11,NNW,329,5.0,8.0,60,0.00,,,0.00,86,Wunderground v.1.15,2013-01-17 17:15:00,
2013-01-17 12:20:00,43.7,30.7,30.11,NNW,340,4.0,4.0,60,0.00,,,0.00,76,Wunderground v.1.15,2013-01-17 17:20:00,
2013-01-17 12:26:00,43.7,31.5,30.10,North,355,2.0,5.0,62,0.00,,,0.00,91,Wunderground v.1.15,2013-01-17 17:26:00,
2013-01-17 12:32:00,43.7,31.1,30.10,NW,306,2.0,5.0,61,0.00,,,0.00,125,Wunderground v.1.15,2013-01-17 17:32:00,
2013-01-17 12:38:00,43.6,30.6,30.09,NNW,343,4.0,8.0,60,0.00,,,0.00,120,Wunderground v.1.15,2013-01-17 17:38:00,
2013-01-17 12:43:00,43.6,31.0,30.09,North,355,4.0,6.0,61,0.00,,,0.00,137,Wunderground v.1.15,2013-01-17 17:43:00,
2013-01-17 12:49:00,43.6,31.4,30.09,NNW,334,2.0,6.0,62,0.00,,,0.00,114,Wunderground v.1.15,2013-01-17 17:49:00,
2013-01-17 12:54:00,43.6,31.0,30.10,NNW,331,3.0,5.0,61,0.00,,,0.00,90,Wunderground v.1.15,2013-01-17 17:54:00,
2013-01-17 12:59:00,43.6,31.0,30.10,NW,312,4.0,9.0,61,0.00,,,0.00,76,Wunderground v.1.15,2013-01-17 17:59:00,
2013-01-17 13:05:00,43.5,30.9,30.11,NW,317,3.0,5.0,61,0.00,,,0.00,74,Wunderground v.1.15,2013-01-17 18:05:00,
2013-01-17 13:11:00,43.4,30.8,30.10,North,355,4.0,5.0,61,0.00,,,0.00,86,Wunderground v.1.15,2013-01-17 18:11:00,
2013-01-17 13:16:00,43.2,30.6,30.09,North,350,5.0,7.0,61,0.00,,,0.00,93,Wunderground v.1.15,2013-01-17 18:16:00,
2013-01-17 13:21:00,43.2,30.6,30.09,North,360,5.0,6.0,61,0.00,,,0.00,97,Wunderground v.1.15,2013-01-17 18:21:00,
2013-01-17 13:26:00,43.2,31.1,30.09,NNW,333,4.0,8.0,62,0.00,,,0.00,90,Wunderground v.1.15,2013-01-17 18:26:00,
2013-01-17 13:32:00,43.2,31.1,30.09,NNW,333,4.0,5.0,62,0.00,,,0.00,98,Wunderground v.1.15,2013-01-17 18:32:00,
2013-01-17 13:38:00,43.2,31.4,30.08,NNE,24,4.0,5.0,63,0.00,,,0.00,62,Wunderground v.1.15,2013-01-17 18:38:00,
2013-01-17 13:44:00,43.2,31.4,30.09,North,355,3.0,5.0,63,0.00,,,0.00,62,Wunderground v.1.15,2013-01-17 18:44:00,
2013-01-17 13:49:00,43.2,31.4,30.09,North,5,3.0,5.0,63,0.00,,,0.00,76,Wunderground v.1.15,2013-01-17 18:49:00,
2013-01-17 13:54:00,43.2,31.4,30.09,North,350,3.0,5.0,63,0.00,,,0.00,70,Wunderground v.1.15,2013-01-17 18:54:00,
2013-01-17 14:00:00,43.1,31.0,30.08,NNW,346,4.0,4.0,62,0.00,,,0.00,54,Wunderground v.1.15,2013-01-17 19:00:00,
2013-01-17 14:06:00,42.9,30.8,30.08,NNW,348,5.0,7.0,62,0.00,,,0.00,40,Wunderground v.1.15,2013-01-17 19:06:00,
2013-01-17 14:11:00,42.7,30.6,30.09,North,5,4.0,5.0,62,0.00,,,0.00,33,Wunderground v.1.15,2013-01-17 19:11:00,
2013-01-17 14:17:00,42.5,30.4,30.10,NW,323,3.0,5.0,62,0.00,,,0.00,30,Wunderground v.1.15,2013-01-17 19:17:00,
2013-01-17 14:23:00,42.4,30.3,30.09,NNW,341,2.0,5.0,62,0.00,,,0.00,33,Wunderground v.1.15,2013-01-17 19:23:00,
2013-01-17 14:29:00,42.3,30.2,30.08,North,9,3.0,5.0,62,0.00,,,0.00,51,Wunderground v.1.15,2013-01-17 19:29:00,
2013-01-17 14:34:00,42.2,30.5,30.08,NNE,12,3.0,5.0,63,0.00,,,0.00,39,Wunderground v.1.15,2013-01-17 19:34:00,
2013-01-17 14:40:00,42.2,30.9,30.08,NNE,31,2.0,5.0,64,0.00,,,0.00,42,Wunderground v.1.15,2013-01-17 19:40:00,
2013-01-17 14:46:00,42.1,30.8,30.08,NE,36,2.0,6.0,64,0.00,,,0.00,46,Wunderground v.1.15,2013-01-17 19:46:00,
2013-01-17 14:52:00,42.0,30.7,30.09,NNE,30,1.0,5.0,64,0.00,,,0.00,28,Wunderground v.1.15,2013-01-17 19:52:00,
2013-01-17 14:58:00,42.0,30.7,30.09,NNE,30,1.0,5.0,64,0.00,,,0.00,23,Wunderground v.1.15,2013-01-17 19:58:00,
2013-01-17 15:03:00,41.8,30.5,30.09,NE,42,1.0,5.0,64,0.00,,,0.00,21,Wunderground v.1.15,2013-01-17 20:03:00,
2013-01-17 15:08:00,41.7,30.0,30.09,NNE,32,2.0,5.0,63,0.00,,,0.00,18,Wunderground v.1.15,2013-01-17 20:08:00,
2013-01-17 15:13:00,41.5,30.2,30.10,NE,47,2.0,5.0,64,0.00,,,0.00,16,Wunderground v.1.15,2013-01-17 20:13:00,
2013-01-17 15:19:00,41.5,30.2,30.11,NE,47,1.0,5.0,64,0.00,,,0.00,11,Wunderground v.1.15,2013-01-17 20:19:00,
2013-01-17 15:24:00,41.5,30.2,30.11,North,355,1.0,5.0,64,0.00,,,0.00,14,Wunderground v.1.15,2013-01-17 20:24:00,
2013-01-17 15:30:00,41.4,30.1,30.11,North,360,1.0,1.0,64,0.00,,,0.00,14,Wunderground v.1.15,2013-01-17 20:30:00,
2013-01-17 15:35:00,41.3,30.4,30.11,North,360,1.0,5.0,65,0.00,,,0.00,11,Wunderground v.1.15,2013-01-17 20:35:00,
2013-01-17 15:40:00,41.2,29.9,30.11,North,5,0.0,5.0,64,0.00,,,0.00,12,Wunderground v.1.15,2013-01-17 20:40:00,
2013-01-17 15:46:00,41.1,29.8,30.11,North,5,0.0,5.0,64,0.00,,,0.00,9,Wunderground v.1.15,2013-01-17 20:46:00,
2013-01-17 15:51:00,41.1,29.8,30.11,North,9,0.0,5.0,64,0.00,,,0.00,11,Wunderground v.1.15,2013-01-17 20:51:00,
2013-01-17 15:57:00,41.1,30.2,30.12,North,5,0.0,5.0,65,0.00,,,0.00,9,Wunderground v.1.15,2013-01-17 20:57:00,
2013-01-17 16:03:00,41.1,30.2,30.11,North,5,0.0,5.0,65,0.00,,,0.00,11,Wunderground v.1.15,2013-01-17 21:03:00,
2013-01-17 16:09:00,41.0,29.7,30.11,North,5,0.0,5.0,64,0.00,,,0.00,14,Wunderground v.1.15,2013-01-17 21:09:00,
2013-01-17 16:15:00,41.0,30.1,30.11,North,5,0.0,5.0,65,0.00,,,0.00,14,Wunderground v.1.15,2013-01-17 21:15:00,
2013-01-17 16:20:00,41.0,30.1,30.11,North,5,0.0,5.0,65,0.00,,,0.00,14,Wunderground v.1.15,2013-01-17 21:20:00,
2013-01-17 16:26:00,41.0,30.1,30.12,North,5,0.0,5.0,65,0.00,,,0.00,9,Wunderground v.1.15,2013-01-17 21:26:00,
2013-01-17 16:31:00,40.9,30.0,30.12,North,5,0.0,5.0,65,0.00,,,0.00,11,Wunderground v.1.15,2013-01-17 21:31:00,
2013-01-17 16:37:00,40.9,30.0,30.11,North,5,0.0,5.0,65,0.00,,,0.00,11,Wunderground v.1.15,2013-01-17 21:37:00,
2013-01-17 16:43:00,40.8,29.9,30.12,North,5,0.0,5.0,65,0.00,,,0.00,9,Wunderground v.1.15,2013-01-17 21:43:00,
2013-01-17 16:49:00,40.8,29.9,30.13,North,5,0.0,5.0,65,0.00,,,0.00,5,Wunderground v.1.15,2013-01-17 21:49:00,
2013-01-17 16:55:00,40.8,29.9,30.13,North,5,0.0,5.0,65,0.00,,,0.00,0,Wunderground v.1.15,2013-01-17 21:55:00,
2013-01-17 17:01:00,40.7,29.8,30.12,North,5,0.0,5.0,65,0.00,,,0.00,0,Wunderground v.1.15,2013-01-17 22:01:00,
2013-01-17 17:07:00,40.7,29.8,30.13,North,5,0.0,5.0,65,0.00,,,0.00,0,Wunderground v.1.15,2013-01-17 22:07:00,
2013-01-17 17:13:00,40.6,29.7,30.12,North,5,0.0,5.0,65,0.00,,,0.00,0,Wunderground v.1.15,2013-01-17 22:13:00,
2013-01-17 17:18:00,40.6,30.1,30.12,North,5,0.0,5.0,66,0.00,,,0.00,0,Wunderground v.1.15,2013-01-17 22:18:00,
2013-01-17 17:23:00,40.5,29.7,30.13,North,5,0.0,5.0,65,0.00,,,0.00,0,Wunderground v.1.15,2013-01-17 22:23:00,
2013-01-17 17:29:00,40.5,30.0,30.12,North,5,0.0,5.0,66,0.00,,,0.00,0,Wunderground v.1.15,2013-01-17 22:29:00,
2013-01-17 17:34:00,40.4,29.9,30.12,North,5,0.0,5.0,66,0.00,,,0.00,0,Wunderground v.1.15,2013-01-17 22:34:00,
2013-01-17 17:40:00,40.4,29.9,30.12,North,5,1.0,5.0,66,0.00,,,0.00,0,Wunderground v.1.15,2013-01-17 22:40:00,
2013-01-17 17:46:00,40.3,29.5,30.13,North,5,1.0,5.0,65,0.00,,,0.00,0,Wunderground v.1.15,2013-01-17 22:46:00,
2013-01-17 17:52:00,40.3,29.8,30.13,North,360,1.0,5.0,66,0.00,,,0.00,0,Wunderground v.1.15,2013-01-17 22:52:00,
2013-01-17 17:58:00,40.2,29.7,30.12,North,355,1.0,5.0,66,0.00,,,0.00,0,Wunderground v.1.15,2013-01-17 22:58:00,
2013-01-17 18:04:00,40.2,29.7,30.12,North,355,1.0,5.0,66,0.00,,,0.00,0,Wunderground v.1.15,2013-01-17 23:04:00,
2013-01-17 18:10:00,40.1,29.6,30.14,WNW,295,1.0,5.0,66,0.00,,,0.00,0,Wunderground v.1.15,2013-01-17 23:10:00,
2013-01-17 18:16:00,40.1,29.6,30.15,WNW,301,3.0,5.0,66,0.00,,,0.00,0,Wunderground v.1.15,2013-01-17 23:16:00,
2013-01-17 18:22:00,40.0,29.2,30.14,NW,307,2.0,5.0,65,0.00,,,0.00,0,Wunderground v.1.15,2013-01-17 23:22:00,
2013-01-17 18:28:00,40.0,29.2,30.14,NW,309,2.0,5.0,65,0.00,,,0.00,0,Wunderground v.1.15,2013-01-17 23:28:00,
2013-01-17 18:33:00,40.0,29.2,30.14,NW,309,1.0,5.0,65,0.00,,,0.00,0,Wunderground v.1.15,2013-01-17 23:33:00,
2013-01-17 18:38:00,40.0,29.2,30.14,NW,309,1.0,5.0,65,0.00,,,0.00,0,Wunderground v.1.15,2013-01-17 23:38:00,
2013-01-17 18:43:00,40.0,29.2,30.14,NW,309,1.0,5.0,65,0.00,,,0.00,0,Wunderground v.1.15,2013-01-17 23:43:00,
2013-01-17 18:49:00,39.9,29.1,30.14,NW,309,1.0,5.0,65,0.00,,,0.00,0,Wunderground v.1.15,2013-01-17 23:49:00,
2013-01-17 18:55:00,39.9,29.1,30.13,NW,309,0.0,5.0,65,0.00,,,0.00,0,Wunderground v.1.15,2013-01-17 23:55:00,
2013-01-17 19:01:00,39.9,29.1,30.12,NW,309,0.0,5.0,65,0.00,,,0.00,0,Wunderground v.1.15,2013-01-18 00:01:00,
2013-01-17 19:07:00,39.8,29.4,30.12,NW,309,0.0,5.0,66,0.00,,,0.00,0,Wunderground v.1.15,2013-01-18 00:07:00,
2013-01-17 19:13:00,39.8,29.4,30.14,NW,309,1.0,5.0,66,0.00,,,0.00,0,Wunderground v.1.15,2013-01-18 00:13:00,
2013-01-17 19:19:00,39.8,29.4,30.13,NW,316,2.0,5.0,66,0.00,,,0.00,0,Wunderground v.1.15,2013-01-18 00:19:00,
2013-01-17 19:25:00,39.7,29.3,30.11,NNW,336,3.0,5.0,66,0.00,,,0.00,0,Wunderground v.1.15,2013-01-18 00:25:00,
2013-01-17 19:31:00,39.7,29.3,30.12,NNW,337,3.0,5.0,66,0.00,,,0.00,0,Wunderground v.1.15,2013-01-18 00:31:00,
2013-01-17 19:37:00,39.7,28.9,30.12,NNW,327,3.0,5.0,65,0.00,,,0.00,0,Wunderground v.1.15,2013-01-18 00:37:00,
2013-01-17 19:42:00,39.7,28.9,30.11,NNW,327,2.0,5.0,65,0.00,,,0.00,0,Wunderground v.1.15,2013-01-18 00:42:00,
2013-01-17 19:48:00,39.7,28.9,30.10,NNW,327,0.0,5.0,65,0.00,,,0.00,0,Wunderground v.1.15,2013-01-18 00:48:00,
2013-01-17 19:54:00,39.7,29.3,30.09,NNW,327,0.0,5.0,66,0.00,,,0.00,0,Wunderground v.1.15,2013-01-18 00:54:00,
2013-01-17 20:00:00,39.6,29.2,30.09,NNW,327,0.0,5.0,66,0.00,,,0.00,0,Wunderground v.1.15,2013-01-18 01:00:00,
2013-01-17 20:05:00,39.6,29.2,30.09,NNW,327,1.0,5.0,66,0.00,,,0.00,0,Wunderground v.1.15,2013-01-18 01:05:00,
2013-01-17 20:11:00,39.5,29.1,30.08,NNW,327,1.0,5.0,66,0.00,,,0.00,0,Wunderground v.1.15,2013-01-18 01:11:00,
2013-01-17 20:16:00,39.5,29.1,30.09,NNW,327,1.0,5.0,66,0.00,,,0.00,0,Wunderground v.1.15,2013-01-18 01:16:00,
2013-01-17 20:21:00,39.4,29.3,30.10,NNW,327,1.0,5.0,67,0.00,,,0.00,0,Wunderground v.1.15,2013-01-18 01:21:00,
2013-01-17 20:27:00,39.3,29.3,30.10,NW,326,1.0,5.0,67,0.00,,,0.00,0,Wunderground v.1.15,2013-01-18 01:27:00,
2013-01-17 20:33:00,39.3,29.3,30.10,NW,326,1.0,5.0,67,0.00,,,0.00,0,Wunderground v.1.15,2013-01-18 01:33:00,
2013-01-17 20:39:00,39.3,29.3,30.09,NW,326,0.0,5.0,67,0.00,,,0.00,0,Wunderground v.1.15,2013-01-18 01:39:00,
2013-01-17 20:44:00,39.2,29.2,30.09,NW,326,1.0,5.0,67,0.00,,,0.00,0,Wunderground v.1.15,2013-01-18 01:44:00,
2013-01-17 20:50:00,39.2,29.5,30.10,NW,326,1.0,1.0,68,0.00,,,0.00,0,Wunderground v.1.15,2013-01-18 01:50:00,
2013-01-17 20:56:00,39.1,29.4,30.09,NW,326,0.0,5.0,68,0.00,,,0.00,0,Wunderground v.1.15,2013-01-18 01:56:00,
2013-01-17 21:02:00,39.1,29.4,30.10,NW,326,1.0,5.0,68,0.00,,,0.00,0,Wunderground v.1.15,2013-01-18 02:02:00,
2013-01-17 21:08:00,39.1,29.4,30.10,NW,326,0.0,5.0,68,0.00,,,0.00,0,Wunderground v.1.15,2013-01-18 02:08:00,
2013-01-17 21:14:00,39.0,29.3,30.08,NW,326,0.0,5.0,68,0.00,,,0.00,0,Wunderground v.1.15,2013-01-18 02:14:00,
2013-01-17 21:20:00,39.0,29.3,30.09,NW,326,0.0,5.0,68,0.00,,,0.00,0,Wunderground v.1.15,2013-01-18 02:20:00,
2013-01-17 21:26:00,38.9,29.6,30.09,NW,326,1.0,5.0,69,0.00,,,0.00,0,Wunderground v.1.15,2013-01-18 02:26:00,
2013-01-17 21:31:00,38.9,29.6,30.08,NW,326,1.0,5.0,69,0.00,,,0.00,0,Wunderground v.1.15,2013-01-18 02:31:00,
2013-01-17 21:36:00,38.9,29.6,30.08,NW,325,2.0,5.0,69,0.00,,,0.00,0,Wunderground v.1.15,2013-01-18 02:36:00,
2013-01-17 21:42:00,38.8,29.5,30.08,NW,322,2.0,5.0,69,0.00,,,0.00,0,Wunderground v.1.15,2013-01-18 02:42:00,
2013-01-17 21:48:00,38.8,29.5,30.07,NW,318,3.0,5.0,69,0.00,,,0.00,0,Wunderground v.1.15,2013-01-18 02:48:00,
2013-01-17 21:54:00,38.8,29.5,30.08,NW,319,3.0,5.0,69,0.00,,,0.00,0,Wunderground v.1.15,2013-01-18 02:54:00,
2013-01-17 22:00:00,38.8,29.5,30.07,NW,316,2.0,5.0,69,0.00,,,0.00,0,Wunderground v.1.15,2013-01-18 03:00:00,
2013-01-17 22:05:00,38.7,29.4,30.08,NW,315,2.0,5.0,69,0.00,,,0.00,0,Wunderground v.1.15,2013-01-18 03:05:00,
2013-01-17 22:10:00,38.7,29.4,30.10,NW,315,2.0,2.0,69,0.00,,,0.00,0,Wunderground v.1.15,2013-01-18 03:10:00,
2013-01-17 22:15:00,38.7,29.8,30.09,NW,314,1.0,5.0,70,0.00,,,0.00,0,Wunderground v.1.15,2013-01-18 03:15:00,
2013-01-17 22:21:00,38.7,29.8,30.09,NW,314,1.0,4.0,70,0.00,,,0.00,0,Wunderground v.1.15,2013-01-18 03:21:00,
2013-01-17 22:27:00,38.7,29.8,30.10,NW,314,1.0,5.0,70,0.00,,,0.00,0,Wunderground v.1.15,2013-01-18 03:27:00,
2013-01-17 22:32:00,38.6,29.7,30.09,NW,314,1.0,5.0,70,0.00,,,0.00,0,Wunderground v.1.15,2013-01-18 03:32:00,
2013-01-17 22:38:00,38.6,29.7,30.09,NW,314,1.0,5.0,70,0.00,,,0.00,0,Wunderground v.1.15,2013-01-18 03:38:00,
2013-01-17 22:43:00,38.6,29.7,30.09,NW,314,1.0,5.0,70,0.00,,,0.00,0,Wunderground v.1.15,2013-01-18 03:43:00,
2013-01-17 22:48:00,38.6,29.7,30.09,NW,314,0.0,5.0,70,0.00,,,0.00,0,Wunderground v.1.15,2013-01-18 03:48:00,
2013-01-17 22:54:00,38.5,29.6,30.09,NW,314,0.0,5.0,70,0.00,,,0.00,0,Wunderground v.1.15,2013-01-18 03:54:00,
2013-01-17 22:59:00,38.5,29.6,30.09,NW,314,0.0,5.0,70,0.00,,,0.00,0,Wunderground v.1.15,2013-01-18 03:59:00,
2013-01-17 23:05:00,38.5,29.6,30.10,NW,314,0.0,5.0,70,0.00,,,0.00,0,Wunderground v.1.15,2013-01-18 04:05:00,
2013-01-17 23:10:00,38.4,29.8,30.08,NW,314,0.0,5.0,71,0.00,,,0.00,0,Wunderground v.1.15,2013-01-18 04:10:00,
2013-01-17 23:16:00,38.4,29.8,30.06,NW,315,1.0,6.0,71,0.00,,,0.00,0,Wunderground v.1.15,2013-01-18 04:16:00,
2013-01-17 23:22:00,38.4,29.8,30.08,NW,316,2.0,5.0,71,0.00,,,0.00,0,Wunderground v.1.15,2013-01-18 04:22:00,
2013-01-17 23:28:00,38.3,29.7,30.08,NW,310,2.0,5.0,71,0.00,,,0.00,0,Wunderground v.1.15,2013-01-18 04:28:00,
2013-01-17 23:34:00,38.3,29.7,30.07,NW,310,1.0,5.0,71,0.00,,,0.00,0,Wunderground v.1.15,2013-01-18 04:34:00,
2013-01-17 23:40:00,38.2,29.6,30.06,NW,307,1.0,1.0,71,0.00,,,0.00,0,Wunderground v.1.15,2013-01-18 04:40:00,
2013-01-17 23:46:00,38.2,29.6,30.06,NW,307,0.0,5.0,71,0.00,,,0.00,0,Wunderground v.1.15,2013-01-18 04:46:00,
2013-01-17 23:51:00,38.2,30.0,30.08,NW,306,0.0,5.0,72,0.00,,,0.00,0,Wunderground v.1.15,2013-01-18 04:51:00,
2013-01-17 23:57:00,38.1,29.9,30.08,NW,306,1.0,5.0,72,0.00,,,0.00,0,Wunderground v.1.15,2013-01-18 04:57:00,